| time (UTC) | temp C | wind direction | speed KPH | gust KPH | rain 1hr cm | rain 24hr cm | rain mn cm | humidity % | barometer mb |
| 20260505211704 | 17 | 212 | 11.3 | 20.9 | 0.00 | 0.00 | 0.00 | 38 | 1015.0 |
| 20260505211204 | 17 | 238 | 17.7 | 27.4 | 0.00 | 0.00 | 0.00 | 37 | 1015.0 |
| 20260505210704 | 17 | 253 | 11.3 | 20.9 | 0.00 | 0.00 | 0.00 | 37 | 1015.0 |
| 20260505210204 | 17 | 264 | 11.3 | 27.4 | 0.00 | 0.00 | 0.00 | 38 | 1015.0 |
| 20260505204703 | 16 | 206 | 12.9 | 25.7 | 0.00 | 0.00 | 0.00 | 40 | 1015.0 |
| 20260505201203 | 16 | 275 | 9.7 | 24.1 | 0.00 | 0.00 | 0.00 | 43 | 1015.0 |
| 20260505200703 | 15 | 271 | 11.3 | 27.4 | 0.00 | 0.00 | 0.00 | 46 | 1015.0 |
| 20260505200204 | 14 | 240 | 17.7 | 32.2 | 0.00 | 0.00 | 0.00 | 46 | 1015.0 |
| 20260505194703 | 14 | 243 | 20.9 | 32.2 | 0.00 | 0.00 | 0.00 | 47 | 1015.0 |
| 20260505194203 | 15 | 251 | 20.9 | 32.2 | 0.00 | 0.00 | 0.00 | 46 | 1015.0 |
| 20260505193704 | 15 | 241 | 11.3 | 22.5 | 0.00 | 0.00 | 0.00 | 43 | 1015.0 |
| 20260505193203 | 15 | 249 | 16.1 | 25.7 | 0.00 | 0.00 | 0.00 | 44 | 1015.0 |
| 20260505191703 | 14 | 268 | 14.5 | 22.5 | 0.00 | 0.00 | 0.00 | 47 | 1015.0 |
| 20260505191203 | 14 | 247 | 16.1 | 25.7 | 0.00 | 0.00 | 0.00 | 47 | 1015.0 |
| 20260505190704 | 13 | 264 | 14.5 | 22.5 | 0.00 | 0.00 | 0.00 | 50 | 1015.0 |
| 20260505190203 | 13 | 235 | 11.3 | 27.4 | 0.00 | 0.00 | 0.00 | 52 | 1016.0 |
| 20260505184703 | 15 | 219 | 11.3 | 19.3 | 0.00 | 0.00 | 0.00 | 39 | 1016.0 |
| 20260505184203 | 15 | 247 | 11.3 | 22.5 | 0.00 | 0.00 | 0.00 | 39 | 1016.0 |
| 20260505183703 | 15 | 200 | 6.4 | 14.5 | 0.00 | 0.00 | 0.00 | 37 | 1016.0 |
| 20260505183203 | 15 | 184 | 3.2 | 19.3 | 0.00 | 0.00 | 0.00 | 38 | 1016.0 |
| 20260505181203 | 15 | 152 | 4.8 | 12.9 | 0.00 | 0.00 | 0.00 | 37 | 1016.0 |
| 20260505180204 | 15 | 171 | 9.7 | 22.5 | 0.00 | 0.00 | 0.00 | 35 | 1016.0 |
| 20260505174703 | 15 | 208 | 3.2 | 12.9 | 0.00 | 0.00 | 0.00 | 37 | 1016.0 |
| 20260505174204 | 15 | 226 | 6.4 | 11.3 | 0.00 | 0.00 | 0.00 | 36 | 1016.0 |
| 20260505173204 | 15 | 141 | 1.6 | 11.3 | 0.00 | 0.00 | 0.00 | 35 | 1016.0 |
| 20260505171203 | 14 | 250 | 8.0 | 12.9 | 0.00 | 0.00 | 0.00 | 37 | 1016.0 |
| 20260505170204 | 13 | 141 | 4.8 | 16.1 | 0.00 | 0.00 | 0.00 | 38 | 1016.0 |
| 20260505164704 | 12 | 214 | 8.0 | 19.3 | 0.00 | 0.00 | 0.00 | 40 | 1016.0 |
| 20260505164203 | 12 | 254 | 9.7 | 19.3 | 0.00 | 0.00 | 0.00 | 41 | 1016.0 |
| 20260505163703 | 12 | 202 | 3.2 | 19.3 | 0.00 | 0.00 | 0.00 | 42 | 1016.0 |
| 20260505163203 | 12 | 226 | 8.0 | 19.3 | 0.00 | 0.00 | 0.00 | 42 | 1016.0 |
| 20260505161703 | 12 | 251 | 8.0 | 16.1 | 0.00 | 0.00 | 0.00 | 44 | 1016.0 |
| 20260505161203 | 12 | 214 | 8.0 | 12.9 | 0.00 | 0.00 | 0.00 | 44 | 1016.0 |
| 20260505160203 | 12 | 256 | 8.0 | 20.9 | 0.00 | 0.00 | 0.00 | 43 | 1016.0 |
| 20260505153203 | 12 | 256 | 6.4 | 19.3 | 0.00 | 0.00 | 0.00 | 43 | 1016.2 |
| 20260505151704 | 12 | 271 | 9.7 | 19.3 | 0.00 | 0.00 | 0.00 | 42 | 1016.1 |
| 20260505151204 | 12 | 265 | 8.0 | 19.3 | 0.00 | 0.00 | 0.00 | 43 | 1016.1 |
| 20260505150704 | 12 | 275 | 11.3 | 19.3 | 0.00 | 0.00 | 0.00 | 43 | 1016.1 |
| 20260505150203 | 12 | 260 | 11.3 | 22.5 | 0.00 | 0.00 | 0.00 | 42 | 1016.1 |
| 20260505140204 | 12 | 255 | 8.0 | 19.3 | 0.00 | 0.00 | 0.00 | 44 | 1016.0 |
| 20260505130202 | 9 | 257 | 8.0 | 11.3 | 0.00 | 0.00 | 0.00 | 48 | 1016.1 |
| 20260505124704 | 8 | 254 | 1.6 | 4.8 | 0.00 | 0.00 | 0.00 | 49 | 1016.1 |
| 20260505124203 | 8 | 247 | 1.6 | 4.8 | 0.00 | 0.00 | 0.00 | 48 | 1016.1 |
| 20260505123703 | 8 | 246 | 3.2 | 4.8 | 0.00 | 0.00 | 0.00 | 47 | 1016.1 |
| 20260505123204 | 8 | 244 | 0.0 | 4.8 | 0.00 | 0.00 | 0.00 | 46 | 1016.1 |
| 20260505121704 | 9 | 243 | 0.0 | 0.0 | 0.00 | 0.00 | 0.00 | 43 | 1015.8 |
| 20260505121204 | 9 | 243 | 0.0 | 0.0 | 0.00 | 0.00 | 0.00 | 43 | 1015.8 |
| 20260505120704 | 9 | 243 | 0.0 | 0.0 | 0.00 | 0.00 | 0.00 | 43 | 1015.8 |
| 20260505120203 | 10 | 243 | 0.0 | 4.8 | 0.00 | 0.00 | 0.00 | 43 | 1015.8 |
| 20260505114704 | 10 | 243 | 0.0 | 0.0 | 0.00 | 0.00 | 0.00 | 42 | 1015.8 |
| 20260505114203 | 10 | 243 | 0.0 | 0.0 | 0.00 | 0.00 | 0.00 | 42 | 1015.8 |
| 20260505113703 | 10 | 243 | 0.0 | 0.0 | 0.00 | 0.00 | 0.00 | 42 | 1015.8 |
| 20260505113204 | 10 | 243 | 3.2 | 9.7 | 0.00 | 0.00 | 0.00 | 41 | 1015.8 |
| 20260505111703 | 10 | 248 | 4.8 | 9.7 | 0.00 | 0.00 | 0.00 | 41 | 1015.8 |
| 20260505111204 | 10 | 253 | 4.8 | 9.7 | 0.00 | 0.00 | 0.00 | 40 | 1015.8 |
| 20260505110703 | 10 | 254 | 3.2 | 4.8 | 0.00 | 0.00 | 0.00 | 40 | 1015.8 |
| 20260505101703 | 11 | 271 | 3.2 | 4.8 | 0.00 | 0.00 | 0.00 | 37 | 1015.6 |
| 20260505101205 | 11 | 271 | 1.6 | 4.8 | 0.00 | 0.00 | 0.00 | 37 | 1015.6 |
| 20260505100203 | 11 | 271 | 3.2 | 8.0 | 0.00 | 0.00 | 0.00 | 37 | 1015.6 |
| 20260505094203 | 11 | 281 | 3.2 | 9.7 | 0.00 | 0.00 | 0.00 | 37 | 1015.6 |
| 20260505093704 | 11 | 270 | 4.8 | 11.3 | 0.00 | 0.00 | 0.00 | 37 | 1015.6 |
| 20260505091703 | 11 | 297 | 3.2 | 8.0 | 0.00 | 0.00 | 0.00 | 38 | 1015.6 |
| 20260505091204 | 11 | 282 | 4.8 | 9.7 | 0.00 | 0.00 | 0.00 | 38 | 1015.6 |
| 20260505090703 | 11 | 265 | 8.0 | 19.3 | 0.00 | 0.00 | 0.00 | 38 | 1016.5 |
| 20260505090204 | 11 | 269 | 8.0 | 16.1 | 0.00 | 0.00 | 0.00 | 38 | 1016.5 |
| 20260505084704 | 11 | 299 | 1.6 | 3.2 | 0.00 | 0.00 | 0.00 | 37 | 1016.5 |
| 20260505084204 | 11 | 299 | 1.6 | 4.8 | 0.00 | 0.00 | 0.00 | 36 | 1016.5 |
| 20260505083705 | 11 | 300 | 1.6 | 4.8 | 0.00 | 0.00 | 0.00 | 36 | 1016.5 |
| 20260505083203 | 12 | 300 | 0.0 | 4.8 | 0.00 | 0.00 | 0.00 | 35 | 1016.5 |
| 20260505081704 | 12 | 300 | 1.6 | 4.8 | 0.00 | 0.00 | 0.00 | 34 | 1016.5 |
| 20260505081203 | 12 | 300 | 3.2 | 4.8 | 0.00 | 0.00 | 0.00 | 34 | 1016.5 |
| 20260505080703 | 12 | 320 | 0.0 | 0.0 | 0.00 | 0.00 | 0.00 | 33 | 1016.5 |
| 20260505074703 | 13 | 320 | 0.0 | 1.6 | 0.00 | 0.00 | 0.00 | 32 | 1015.9 |
| 20260505074204 | 13 | 320 | 0.0 | 3.2 | 0.00 | 0.00 | 0.00 | 32 | 1015.9 |
| 20260505073703 | 13 | 320 | 0.0 | 3.2 | 0.00 | 0.00 | 0.00 | 31 | 1015.9 |
| 20260505073203 | 13 | 320 | 1.6 | 11.3 | 0.00 | 0.00 | 0.00 | 31 | 1015.9 |
| 20260505071704 | 13 | 281 | 3.2 | 8.0 | 0.00 | 0.00 | 0.00 | 30 | 1015.9 |
| 20260505071203 | 13 | 292 | 3.2 | 9.7 | 0.00 | 0.00 | 0.00 | 30 | 1015.9 |
| 20260505070703 | 13 | 294 | 6.4 | 14.5 | 0.00 | 0.00 | 0.00 | 30 | 1015.9 |
| 20260505070203 | 13 | 315 | 3.2 | 19.3 | 0.00 | 0.00 | 0.00 | 30 | 1015.9 |
| 20260505064204 | 14 | 274 | 8.0 | 14.5 | 0.00 | 0.00 | 0.00 | 31 | 1015.9 |
| 20260505063703 | 14 | 277 | 4.8 | 16.1 | 0.00 | 0.00 | 0.00 | 31 | 1015.9 |
| 20260505063204 | 14 | 296 | 3.2 | 16.1 | 0.00 | 0.00 | 0.00 | 31 | 1015.9 |
| 20260505061203 | 14 | 269 | 3.2 | 4.8 | 0.00 | 0.00 | 0.00 | 31 | 1015.9 |
| 20260505060703 | 15 | 252 | 3.2 | 9.7 | 0.00 | 0.00 | 0.00 | 31 | 1015.9 |
| 20260505060203 | 15 | 268 | 8.0 | 16.1 | 0.00 | 0.00 | 0.00 | 31 | 1015.9 |
| 20260505054703 | 15 | 248 | 8.0 | 14.5 | 0.00 | 0.00 | 0.00 | 31 | 1015.9 |
| 20260505053703 | 15 | 248 | 9.7 | 19.3 | 0.00 | 0.00 | 0.00 | 31 | 1015.7 |
| 20260505051703 | 14 | 248 | 8.0 | 12.9 | 0.00 | 0.00 | 0.00 | 32 | 1015.7 |
| 20260505051203 | 15 | 263 | 4.8 | 9.7 | 0.00 | 0.00 | 0.00 | 32 | 1015.7 |
| 20260505050703 | 15 | 251 | 4.8 | 9.7 | 0.00 | 0.00 | 0.00 | 32 | 1015.7 |
| 20260505050203 | 15 | 281 | 1.6 | 8.0 | 0.00 | 0.00 | 0.00 | 32 | 1015.9 |
| 20260505041703 | 15 | 337 | 0.0 | 4.8 | 0.00 | 0.00 | 0.00 | 30 | 1016.0 |
| 20260505041203 | 15 | 339 | 1.6 | 4.8 | 0.00 | 0.00 | 0.00 | 30 | 1016.0 |
| 20260505040703 | 15 | 339 | 1.6 | 4.8 | 0.00 | 0.00 | 0.00 | 29 | 1015.3 |
| 20260505034703 | 16 | 339 | 0.0 | 9.7 | 0.00 | 0.00 | 0.00 | 28 | 1015.3 |
| 20260505034204 | 16 | 340 | 1.6 | 3.2 | 0.00 | 0.00 | 0.00 | 28 | 1015.3 |
| 20260505033204 | 16 | 302 | 3.2 | 14.5 | 0.00 | 0.00 | 0.00 | 28 | 1015.3 |
| 20260505031704 | 16 | 294 | 3.2 | 8.0 | 0.00 | 0.00 | 0.00 | 26 | 1015.3 |
| 20260505031203 | 16 | 310 | 1.6 | 4.8 | 0.00 | 0.00 | 0.00 | 26 | 1015.3 |
| 20260505030703 | 16 | 310 | 3.2 | 8.0 | 0.00 | 0.00 | 0.00 | 26 | 1015.3 |
| 20260505024703 | 16 | 288 | 4.8 | 16.1 | 0.00 | 0.00 | 0.00 | 25 | 1014.9 |
| 20260505024204 | 17 | 288 | 4.8 | 14.5 | 0.00 | 0.00 | 0.00 | 24 | 1014.9 |
| 20260505023703 | 17 | 280 | 6.4 | 14.5 | 0.00 | 0.00 | 0.00 | 24 | 1014.9 |
| 20260505023203 | 17 | 270 | 6.4 | 16.1 | 0.00 | 0.00 | 0.00 | 24 | 1014.9 |
| 20260505021705 | 17 | 278 | 8.0 | 20.9 | 0.00 | 0.00 | 0.00 | 23 | 1014.9 |
| 20260505020704 | 17 | 285 | 11.3 | 19.3 | 0.00 | 0.00 | 0.00 | 22 | 1014.6 |
| 20260505020204 | 17 | 285 | 4.8 | 19.3 | 0.00 | 0.00 | 0.00 | 22 | 1014.6 |
| 20260505014204 | 18 | 278 | 8.0 | 19.3 | 0.00 | 0.00 | 0.00 | 21 | 1014.6 |
| 20260505013703 | 18 | 284 | 11.3 | 20.9 | 0.00 | 0.00 | 0.00 | 21 | 1014.6 |
| 20260505013203 | 18 | 271 | 9.7 | 22.5 | 0.00 | 0.00 | 0.00 | 20 | 1014.6 |
| 20260505011704 | 18 | 272 | 11.3 | 20.9 | 0.00 | 0.00 | 0.00 | 20 | 1014.6 |
| 20260505011204 | 18 | 279 | 11.3 | 20.9 | 0.00 | 0.00 | 0.00 | 20 | 1014.6 |
| 20260505010703 | 18 | 263 | 9.7 | 19.3 | 0.00 | 0.00 | 0.00 | 20 | 1014.6 |
| 20260505010203 | 18 | 294 | 9.7 | 25.7 | 0.00 | 0.00 | 0.00 | 20 | 1014.6 |
| 20260505004703 | 19 | 273 | 12.9 | 20.9 | 0.00 | 0.00 | 0.00 | 19 | 1014.6 |
| 20260505004203 | 19 | 279 | 8.0 | 19.3 | 0.00 | 0.00 | 0.00 | 19 | 1014.6 |
| 20260505003703 | 19 | 299 | 11.3 | 24.1 | 0.00 | 0.00 | 0.00 | 19 | 1014.6 |
| 20260505003203 | 19 | 277 | 9.7 | 27.4 | 0.00 | 0.00 | 0.00 | 19 | 1014.6 |
| 20260505001704 | 20 | 260 | 12.9 | 22.5 | 0.00 | 0.00 | 0.00 | 19 | 1015.2 |
| 20260505001203 | 20 | 273 | 11.3 | 29.0 | 0.00 | 0.00 | 0.00 | 19 | 1015.2 |
| 20260505000704 | 20 | 260 | 14.5 | 20.9 | 0.00 | 0.00 | 0.00 | 19 | 1015.2 |
| 20260505000204 | 20 | 279 | 14.5 | 29.0 | 0.00 | 0.00 | 0.00 | 19 | 1015.2 |
| 20260504234704 | 20 | 271 | 8.0 | 19.3 | 0.00 | 0.00 | 0.00 | 20 | 1015.2 |
| 20260504234203 | 20 | 262 | 9.7 | 20.9 | 0.00 | 0.00 | 0.00 | 20 | 1015.2 |
| 20260504233703 | 20 | 248 | 11.3 | 27.4 | 0.00 | 0.00 | 0.00 | 19 | 1015.2 |
| 20260504233203 | 20 | 268 | 12.9 | 22.5 | 0.00 | 0.00 | 0.00 | 20 | 1015.2 |
| 20260504231704 | 21 | 280 | 9.7 | 27.4 | 0.00 | 0.00 | 0.00 | 19 | 1015.2 |
| 20260504231204 | 21 | 251 | 14.5 | 20.9 | 0.00 | 0.00 | 0.00 | 19 | 1015.2 |
| 20260504230703 | 21 | 304 | 6.4 | 19.3 | 0.00 | 0.00 | 0.00 | 20 | 1015.2 |
| 20260504230205 | 21 | 292 | 11.3 | 37.0 | 0.00 | 0.00 | 0.00 | 20 | 1015.2 |
| 20260504224704 | 20 | 263 | 12.9 | 20.9 | 0.00 | 0.00 | 0.00 | 20 | 1015.2 |
| 20260504224203 | 20 | 239 | 16.1 | 25.7 | 0.00 | 0.00 | 0.00 | 20 | 1015.2 |
| 20260504223704 | 20 | 250 | 20.9 | 32.2 | 0.00 | 0.00 | 0.00 | 19 | 1015.2 |
| 20260504223204 | 21 | 266 | 17.7 | 29.0 | 0.00 | 0.00 | 0.00 | 20 | 1015.2 |
| 20260504221704 | 20 | 284 | 9.7 | 20.9 | 0.00 | 0.00 | 0.00 | 18 | 1016.0 |
| 20260504221203 | 20 | 251 | 14.5 | 27.4 | 0.00 | 0.00 | 0.00 | 18 | 1016.0 |
| 20260504220703 | 21 | 249 | 16.1 | 27.4 | 0.00 | 0.00 | 0.00 | 18 | 1016.0 |
| 20260504220204 | 21 | 263 | 16.1 | 32.2 | 0.00 | 0.00 | 0.00 | 18 | 1016.0 |
| 20260504214705 | 21 | 275 | 19.3 | 32.2 | 0.00 | 0.00 | 0.00 | 17 | 1016.0 |